Flag for Germany Weather past 2 weeks in Uelzen, Lower Saxony, Germany

Now
50 °F

Partly sunny.


Feels Like: 46 °F
Forecast: 35 / 52 °F
Wind: 10 mph from North

Location: Fassberg

Current Time: Apr 27, 2015 at 4:01:31 PM

Latest Report: Apr 27, 2015 at 3:20 PM


Visibility: N/A

Pressure: 29.74 "Hg

Humidity: 67%

Dew point: 39 °F

Location of UelzenLocation

Historic Weather in Uelzen — Graph

°F

Uelzen temperature yesterday

Maximum temperature yesterday: 61 °F (at 4:20 PM)
Minimum temperature yesterday: 45 °F (at 6:20 AM)
Average temperature yesterday: 53 °F

Past Weeks' High & Low Weather Summary

 TemperatureHumidityPressure
High72 °F (Apr 15, 3:20 PM)100% (Apr 17, 5:20 AM)30.39 "Hg (Apr 17, 5:20 AM)
Low28 °F (Apr 14, 3:20 AM)27% (Apr 21, 5:20 PM)29.65 "Hg (Apr 27, 3:20 AM)
Average49 °F68%30.08 "Hg
* Reported Apr 12 2:20 PM — Apr 27 2:20 PM, Uelzen, Weather by CustomWeather, © 2015

Note: Actual official high and low records may vary slightly from our data, if they occured in-between our weather recording intervals... More about our weather records

Advertising

Uelzen weather history for previous 24 hours

 ConditionsComfort  
Time TempWeatherWind HumidityBarometerVisibility
2:20 PM
Mon, Apr 27
48 °FBroken clouds.10 mph76%29.74 "HgN/A
1:20 PM46 °FBroken clouds.8 mph87%29.74 "HgN/A
12:20 PM45 °FBroken clouds.12 mph93%29.74 "HgN/A
11:20 AM45 °FPartly sunny.9 mph93%29.71 "HgN/A
10:20 AM43 °FLight rain. Broken clouds.8 mph93%29.68 "HgN/A
9:20 AM43 °FLight rain. Broken clouds.10 mph100%29.68 "HgN/A
8:20 AM45 °FLight rain. Partly sunny.8 mph93%29.65 "Hg5 mi
7:20 AM45 °FLight rain. Partly sunny.9 mph93%29.65 "Hg4 mi
6:20 AM45 °FLight rain. Fog.8 mph93%29.65 "Hg3 mi
5:49 AM45 °FRain. Fog.6 mph93%29.65 "Hg3 mi
5:20 AM45 °FLight rain. Fog.7 mph93%29.65 "Hg2 mi
4:20 AM45 °FLight rain. Fog.7 mph100%29.65 "Hg2 mi
3:20 AM46 °FFog.7 mph93%29.65 "Hg2 mi
2:20 AM46 °FFog.7 mph100%29.68 "Hg2 mi
1:20 AM46 °FFog.7 mph100%29.68 "Hg2 mi
12:20 AM48 °FFog.7 mph94%29.68 "Hg2 mi
11:20 PM
Sun, Apr 26
48 °FFog.7 mph100%29.71 "Hg3 mi
10:20 PM50 °FLight rain. Fog.5 mph100%29.71 "Hg3 mi
9:20 PM52 °FPartly sunny.7 mph94%29.71 "Hg5 mi
8:20 PM54 °FPartly sunny.7 mph94%29.68 "HgN/A
7:20 PM55 °FPartly sunny.3 mph88%29.68 "HgN/A
6:20 PM55 °FBroken clouds.8 mph82%29.68 "HgN/A
5:45 PM55 °FSprinkles. Broken clouds.15 mph82%29.68 "Hg5 mi
5:20 PM61 °FBroken clouds.12 mph63%29.68 "HgN/A
4:20 PM61 °FBroken clouds.8 mph68%29.68 "HgN/A
Weather by CustomWeather, © 2015

See weather overviewHow to use our weather pages